Weather History for La Crosse, WI

Change the Weather History Date:

Sunday, February 24, 2013

  Actual Average Record
Temperature  
Mean Temperature 20 °F 26 °F  
Max Temperature 38 °F 35 °F 59 °F (1931)
Min Temperature 1 °F 17 °F -17 °F (1889)
Degree Days  
Heating Degree Days 45 39  
Month to date heating degree days 1105 1038  
Since 1 July heating degree days 5190 5357  
Cooling Degree Days 0 0  
Month to date cooling degree days 0 0  
Year to date cooling degree days 0 0  
Moisture  
Dew Point 11 °F    
Average Humidity 68    
Maximum Humidity 92    
Minimum Humidity 44    
Precipitation  
Precipitation 0.00 in 0.04 in 0.79 in (1975)
Month to date precipitation 1.27 0.87  
Year to date precipitation 2.36 1.99  
Snow  
Snow 0.00 in 0.30 in 8.00 in (1975)
Month to date snowfall 14.3 7.1  
Since 1 July snowfall 39.2 33.4  
Snow Depth 10.00 in    
Sea Level Pressure  
Sea Level Pressure 30.08 in    
Wind  
Wind Speed 1 mph (WSW)    
Max Wind Speed 8 mph    
Max Gust Speed 9 mph    
Visibility 5 miles    
Events Fog    
T = Trace of Precipitation, MM = Missing Value Source: NWS Daily Summary

Daily Weather History Graph

Daily Weather History Graph

Search for Another Location

Airport:

Trip Planner

Search our weather history database for the weather conditions in past years. The results will help you decide how hot, cold, wet, or windy it might be!

Date:

Astronomy

Feb. 24, 2013 Rise Set
Actual Time 6:49 AM CST 5:47 PM CST
Civil Twilight 6:20 AM CST 6:16 PM CST
Nautical Twilight 5:47 AM CST 6:49 PM CST
Astronomical Twilight 5:13 AM CST 7:23 PM CST
Moon 4:58 PM CST (2/24) 5:47 AM CST (2/24)
Length of Visible Light 11h 55m
Length of Day
10h 57m
Waxing Gibbous, 99% of the Moon is Illuminated
Feb 24
Waxing Gibbous
Feb 25
Full
Mar 4
Last Quarter
Mar 11
New
Mar 19
First Quarter

Hourly Weather History & Observations

Time (CST) Temp. Windchill Dew Point Humidity Pressure Visibility Wind Dir Wind Speed Gust Speed Precip Events Conditions
12:53 AM 15.1 °F 7.7 °F 10.9 °F 84% 30.03 in 10.0 mi WNW 4.6 mph - N/A   Clear
1:53 AM 14.0 °F - 10.9 °F 88% 30.04 in 5.0 mi Calm Calm - N/A   Clear
2:01 AM 12.2 °F - 10.4 °F 92% 29.99 in 1.8 mi Calm Calm - N/A   Clear
2:05 AM 14.0 °F - 10.4 °F 86% 29.99 in 3.0 mi Calm Calm - N/A   Clear
2:33 AM 10.4 °F - 6.8 °F 85% 29.99 in 0.8 mi Calm Calm - N/A   Mist
2:42 AM 12.2 °F - 8.6 °F 85% 29.99 in 0.2 mi Calm Calm - N/A Fog Light Freezing Fog
2:46 AM 10.4 °F - 8.6 °F 92% 29.99 in 1.0 mi Calm Calm - N/A   Mist
2:53 AM 10.0 °F - 7.0 °F 87% 30.04 in 0.5 mi Calm Calm - N/A Fog Light Freezing Fog
3:00 AM 10.4 °F - 8.6 °F 92% 29.99 in 0.2 mi Calm Calm - N/A Fog Light Freezing Fog
3:31 AM 8.6 °F - 5.0 °F 85% 29.99 in 0.8 mi Calm Calm - N/A   Mist
3:53 AM 12.0 °F - 10.0 °F 92% 30.05 in 0.5 mi Calm Calm - N/A Fog Light Freezing Fog
4:05 AM 10.4 °F - 8.6 °F 92% 30.00 in 2.0 mi Calm Calm - N/A   Clear
4:13 AM 8.6 °F - 6.8 °F 92% 30.00 in 4.0 mi Calm Calm - N/A   Clear
4:53 AM 3.9 °F -5.3 °F -0.0 °F 84% 30.08 in 6.0 mi WNW 4.6 mph - N/A   Clear
5:07 AM 1.4 °F -6.2 °F -2.2 °F 85% 30.02 in 1.8 mi NW 3.5 mph - N/A   Partly Cloudy
5:09 AM 3.2 °F -4.2 °F -0.4 °F 85% 30.03 in 0.8 mi NW 3.5 mph - N/A   Mist
5:19 AM 3.2 °F - 1.4 °F 92% 30.03 in 0.2 mi Calm Calm - N/A Fog Light Freezing Fog
6:53 AM 7.0 °F - 5.0 °F 92% 30.11 in 0.2 mi Calm Calm - N/A Fog Light Freezing Fog
7:20 AM 5.0 °F - 1.4 °F 85% 30.05 in 0.2 mi Calm Calm - N/A Fog Light Freezing Fog
7:53 AM 7.0 °F -1.7 °F 5.0 °F 92% 30.13 in 0.2 mi SSW 4.6 mph - N/A Fog Light Freezing Fog
8:03 AM 8.6 °F - 6.8 °F 92% 30.07 in 1.0 mi Calm Calm - N/A   Mist
8:10 AM 8.6 °F - 6.8 °F 92% 30.07 in 1.8 mi Calm Calm - N/A   Partly Cloudy
8:20 AM 8.6 °F 2.0 °F 6.8 °F 92% 30.07 in 2.5 mi SE 3.5 mph - N/A   Clear
8:53 AM 15.1 °F 5.2 °F 12.0 °F 88% 30.15 in 9.0 mi South 6.9 mph - N/A   Clear
9:53 AM 18.0 °F - 14.0 °F 84% 30.14 in 9.0 mi Calm Calm - N/A   Clear
10:53 AM 23.0 °F - 16.0 °F 74% 30.15 in 10.0 mi Calm Calm - N/A   Clear
11:53 AM 28.0 °F 24.2 °F 17.1 °F 63% 30.15 in 10.0 mi NW 3.5 mph - N/A   Clear
12:53 PM 33.1 °F - 19.0 °F 56% 30.13 in 10.0 mi Calm Calm - N/A   Clear
1:53 PM 33.1 °F - 19.0 °F 56% 30.12 in 10.0 mi Calm Calm - N/A   Clear
2:53 PM 36.0 °F - 19.9 °F 52% 30.12 in 10.0 mi Calm Calm - N/A   Clear
3:53 PM 37.0 °F - 18.0 °F 46% 30.11 in 10.0 mi Calm Calm - N/A   Clear
4:53 PM 34.0 °F - 18.0 °F 52% 30.11 in 10.0 mi Calm Calm - N/A   Clear
5:53 PM 30.0 °F - 17.1 °F 59% 30.13 in 10.0 mi Calm Calm - N/A   Clear
6:53 PM 30.0 °F - 18.0 °F 61% 30.15 in 10.0 mi Calm Calm - N/A   Clear
7:53 PM 19.9 °F - 15.1 °F 81% 30.16 in 10.0 mi Calm Calm - N/A   Clear
8:53 PM 21.9 °F - 17.1 °F 82% 30.15 in 10.0 mi Calm Calm - N/A   Clear
9:53 PM 24.1 °F 18.2 °F 17.1 °F 75% 30.15 in 10.0 mi SE 4.6 mph - N/A   Mostly Cloudy
10:53 PM 25.0 °F 20.7 °F 19.0 °F 78% 30.15 in 10.0 mi East 3.5 mph - N/A   Overcast
11:53 PM 26.1 °F - 19.9 °F 78% 30.15 in 10.0 mi Calm Calm - N/A   Overcast